Probability
0 0 0 0 0 0 0 0 0 0 0 0 0 0 0 0 0 0 0 0 0 0 0 0 0 0 0 0 0 0 0 0 0 0 0 0 0 0 0 0 0 0 0 0
0 0 0 0 0 0 0 0 0 0 0 0 0 0 0 0 0 0 0 0 0 0 0 0 0 0 0 0 0 0 0 0 0 0 0 0 0 0 0 0 0 0 0 0
0 0 0 0 0 0 0 0 0 0 0 0 0 0 0 0 0 0 0 0 0 0 0 0 0 0 0 0 0 0 0 0 0 0 0 0 0 0 0 0 0 0 0 0
0 0 0 0 0 0 0 0 0 0 0 0 0 0 0 0 0 0 0 0 0 0 0 0 0 0 0 0 0 0 0 0 0 0 0 0 0 0 0 0 0 0 0 0
0 0 0 0 0 0 0 0 0 0 0 0 0 0 0 0 0 0 0 0 0 0 0 0 0 0 0 0 0 0 0 0 0 0 0 0 0 0 0 0 0 0 0 0
0 0 0 0 0 0 0 0 0 0 0 0 0 0 0 0 0 0 0 0 0 0 0 0 0 0 0 0 0 0 0 0 0 0 0 0 0 0 0 0 0 0 0 0
0 0 0 0 0 0 0 0 0 0 0 0 0 0 0 0 0 0 0 0 0 0 0 0 0 0 0 0 0 0 0 0 0 0 0 0 0 0 0 0 0 0 0 0
0 0 0 0 0 0 0 0 0 0 0 0 0 0 0 0 0 0 0 0 0 0 0 0 0 0 0 0 0 0 0 0 0 0 0 0 0 0 0 0 0 0 0 0
0 0 0 0 0 0 0 0 0 0 0 0 0 0 0 0 0 0 0 0 0 0 0 0 0 0 0 0 0 0 0 0 0 0 0 0 0 0 0 0 0 0 0 0
0 0 0 0 0 0 0 0 0 0 0 0 0 0 0 0 0 0 0 0 0 0 0 0 0 0 0 0 0 0 0 0 0 0 0 0 0 0 0 0 0 0 0 0
0 0 0 0 0 0 0 0 0 0 0 0 0 0 0 0 0 0 0 0 0 0 0 0 0 0 0 0 0 0 0 0 0 0 0 0 0 0 0 0 0 0 0 0
0 0 0 0 0 0 0 0 0 0 0 0 0 0 0 0 0 0 0 0 0 0 0 0 0 0 0 0 0 0 0 0 0 0 0 0 0 0 0 0 0 0 0 0
0 0 0 0 0 0 0 0 0 0 0 0 0 0 0 0 0 0 0 0 0 0 0 0 0 0 0 0 0 0 0 0 0 0 0 0 0 0 0 0 0 0 0 0
0 0 0 0 0 0 0 0 0 0 0 0 0 0 0 0 0 0 0 0 0 0 0 0 0 0 0 0 0 0 0 0 0 0 0 0 0 0 0 0 0 0 0 0
0 0 0 0 0 0 0 0 0 0 0 0 0 0 0 0 0 0 0 0 0 0 0 0 0 0 0 0 0 0 0 0 0 0 0 0 0 0 0 0 0 0 0 0
0 0 0 0 0 0 0 0 0 0 0 0 0 0 0 0 0 0 0 0 0 0 0 0 0 0 0 0 0 0 0 0 0 0 0 0 0 0 0 0 0 0 0 0
0 0 0 0 0 0 0 0 0 0 0 0 0 0 0 0 0 0 0 0 0 0 0 0 0 0 0 0 0 0 0 0 0 0 0 0 0 0 0 0 0 0 0 0
0 0 0 0 0 0 0 0 0 0 0 0 0 0 0 0 0 0 0 0 0 0 0 0 0 0 0 0 0 0 0 0 0 0 0 0 0 0 0 0 0 0 0 0
0 0 0 0 0 0 0 0 0 0 0 0 0 0 0 0 0 0 0 0 0 0 0 0 0 0 0 0 0 0 0 0 0 0 0 0 0 0 0 0 0 0 0 0
0 0 0 0 0 0 0 0 0 0 0 0 0 0 0 0 0 0 0 0 0 0 0 0 0 0 0 0 0 0 0 0 0 0 0 0 0 0 0 0 0 0 0 0
0 0 0 0 0 0 0 0 0 0 0 0 0 0 0 0 0 0 0 0 0 0 0 0 0 0 0 0 0 0 0 0 0 0 0 0 0 0 0 0 0 0 0 0
0 0 0 0 0 0 0 0 0 0 0 0 0 0 0 0 0 0 0 0 0 0 0 0 0 0 0 0 0 0 0 0 0 0 0 0 0 0 0 0 0 0 0 0
0 0 0 0 0 0 0 0 0 0 0 0 0 0 0 0 0 0 0 0 0 0 0 0 0 0 0 0 0 0 0 0 0 0 0 0 0 0 0 0 0 0 0 0
0 0 0 0 0 0 0 0 0 0 0 0 0 0 0 0 0 0 0 0 0 0 0 0 0 0 0 0 0 0 0 0 0 0 0 0 0 0 0 0 0 0 0 0
0 0 0 0 0 0 0 0 0 0 0 0 0 0 0 0 0 0 0 0 0 0 0 0 0 0 0 0 0 0 0 0 0 0 0 0 0 0 0 0 0 0 0 0
0 0 0 0 0 0 0 0 0 0 0 0 0 0 0 0 0 0 0 0 0 0 0 0 0 0 0 0 0 0 0 0 0 0 0 0 0 0 0 0 0 0 0 0
0 0 0 0 0 0 0 0 0 0 0 0 0 0 0 0 0 0 0 0 0 0 0 0 0 0 0 0 0 0 0 0 0 0 0 0 0 0 0 0 0 0 0 0
Wind_Speed
6 5 4 5 6 4 5 6 7 8 8 11 7 7 7 7 7 7 8 8 8 7 7 7 7 7 7 6 6 5 5 5 5 5 4 4 3 3 3 3 3 2 2 3
4 4 4 8 8 7 7 6 8 8 11 8 6 4 5 6 7 8 9 9 8 8 8 8 8 8 8 8 7 6 5 5 5 5 4 4 4 3 3 3 2 2 2 3
4 4 5 8 7 7 5 5 6 8 9 4 4 5 5 6 7 8 8 9 8 8 7 7 7 7 7 8 7 6 5 6 6 5 4 4 4 3 4 3 2 2 2 3
2 4 6 7 1 4 5 6 6 7 6 5 6 6 5 5 5 6 7 8 8 8 8 7 7 7 7 7 7 6 6 6 6 5 4 4 3 3 4 3 3 3 3 3
1 2 9 7 2 3 3 7 6 7 8 6 4 5 5 4 3 4 6 7 7 7 7 7 8 7 7 7 7 7 7 7 7 6 5 4 4 4 4 3 3 3 3 3
2 2 7 6 2 1 2 6 4 4 5 4 2 4 6 3 4 6 6 6 6 7 7 7 8 7 6 7 7 7 8 8 8 6 5 5 4 4 4 3 4 3 3 3
4 5 11 6 1 3 2 7 3 3 4 3 4 6 6 5 6 6 6 7 6 6 6 6 7 6 6 7 7 8 8 8 8 7 6 5 4 4 3 3 3 3 3 3
5 5 11 3 4 6 7 3 2 3 4 4 5 6 6 6 6 7 7 7 7 6 7 6 6 5 6 7 8 8 7 7 8 7 6 4 4 4 3 3 2 2 2 3
10 10 5 5 6 5 2 3 3 3 4 3 4 6 6 6 6 6 7 7 6 6 7 7 6 5 6 8 8 8 7 7 7 7 5 5 4 3 2 2 2 2 2 2
6 10 6 6 6 5 3 4 4 4 4 3 5 6 6 6 6 6 6 7 6 6 7 7 7 6 6 7 7 7 7 7 6 6 5 5 4 3 2 2 2 2 2 2
7 8 6 5 6 5 4 4 4 4 3 4 4 5 5 5 6 6 6 6 6 6 6 7 7 7 7 7 6 6 7 6 6 5 4 4 4 3 3 2 2 3 3 2
8 6 4 5 4 3 3 4 4 4 4 3 3 5 5 5 5 5 6 6 6 6 7 7 7 7 7 6 6 6 6 6 4 4 4 3 4 4 6 5 6 5 4 3
5 2 3 5 4 2 3 4 3 3 4 4 4 4 4 5 5 5 6 6 7 7 7 7 7 7 7 6 6 5 5 5 4 4 4 4 3 3 4 5 6 5 4 4
3 1 3 3 3 3 3 3 3 3 3 3 3 3 4 4 5 5 6 6 6 6 6 6 6 7 7 7 6 6 5 6 5 3 3 3 3 3 3 3 4 3 4 4
3 3 4 4 3 3 2 2 3 4 4 3 3 3 4 5 6 6 6 6 5 5 6 6 6 7 7 6 6 6 5 4 3 3 3 3 3 3 2 3 2 3 3 3
2 2 2 3 4 3 3 3 4 5 4 4 4 4 5 5 5 5 5 5 4 5 6 6 7 7 7 6 6 5 4 7 5 3 3 3 3 2 2 2 2 2 2 3
1 2 3 4 4 4 4 4 5 5 4 4 5 5 4 4 5 5 5 4 4 5 6 6 7 7 6 5 5 4 4 5 7 4 3 3 3 2 2 2 2 2 2 3
4 4 4 4 5 5 5 4 4 4 4 5 4 3 3 4 5 5 5 5 5 6 6 6 6 6 6 5 4 3 3 3 3 3 3 3 3 2 2 2 2 2 2 2
3 4 4 4 4 4 4 4 4 4 4 3 3 4 4 4 4 5 4 4 5 6 7 6 9 7 6 5 5 3 3 3 3 3 3 4 4 3 2 2 2 2 2 2
3 3 3 3 3 3 3 4 3 3 3 3 3 4 4 5 4 4 4 4 4 5 6 7 6 5 5 5 6 3 3 3 3 3 3 3 3 3 3 3 3 2 2 2
3 3 3 3 3 3 3 3 3 4 4 3 3 4 5 5 4 3 4 5 6 5 6 8 5 5 5 5 6 3 3 3 3 3 3 3 3 3 3 3 3 2 2 2
3 3 3 3 3 4 3 3 3 3 3 3 3 4 4 4 4 4 4 4 5 8 5 4 4 6 6 6 3 3 3 3 3 2 2 3 3 3 3 2 2 2 2 2
2 2 2 3 3 3 3 3 3 3 3 4 4 4 4 4 3 4 5 4 4 7 5 4 7 9 9 4 3 3 3 3 3 3 3 3 3 3 3 3 2 2 2 2
2 2 2 2 2 2 3 4 3 3 3 4 4 3 3 3 4 3 4 7 8 8 5 6 10 10 8 3 3 3 3 3 3 3 3 3 3 3 3 3 2 2 2 2
2 2 2 2 2 2 3 4 3 3 3 3 4 3 3 2 3 4 4 5 8 7 5 7 10 9 5 3 3 3 3 3 3 3 2 3 3 3 3 3 2 2 2 2
1 2 2 2 2 2 2 2 2 3 3 3 3 3 3 3 3 3 3 4 6 7 5 4 5 6 4 4 4 4 4 4 4 3 3 3 3 3 3 3 3 3 3 3
1 1 1 2 2 2 2 2 2 3 3 3 4 4 3 3 3 3 4 4 4 4 4 4 4 3 4 4 4 4 3 3 3 3 3 3 3 3 3 4 3 3 3 3
Wind_Direction
253 259 262 263 268 244 219 220 223 251 259 278 294 295 301 310 320 328 332 335 334 330 329 332 336 336 333 328 329 327 325 318 310 308 309 309 306 302 297 291 271 260 256 255
281 264 269 279 269 247 243 244 245 265 274 274 286 298 308 315 323 326 327 329 329 330 331 331 332 332 332 328 325 322 317 309 307 305 306 305 302 300 300 292 281 264 252 246
281 313 324 282 250 216 222 223 214 237 257 291 302 305 304 310 315 313 316 321 325 325 321 322 323 324 323 320 321 321 313 310 313 306 299 299 300 300 294 283 280 274 264 249
298 5 264 253 206 198 229 254 237 254 273 278 274 288 290 287 292 302 314 319 320 320 321 322 322 322 320 321 324 324 321 319 314 308 298 297 297 294 293 282 268 261 260 252
180 278 280 290 255 183 208 273 240 243 269 287 306 313 304 292 289 295 305 308 310 311 314 320 324 326 325 327 330 330 328 322 318 313 304 298 291 284 280 274 271 263 258 247
160 227 258 263 261 197 114 289 262 222 258 284 340 312 294 312 316 312 312 314 316 319 322 323 323 330 331 328 331 328 323 318 316 313 302 292 282 280 277 268 265 269 268 255
202 236 265 261 230 120 164 259 280 223 246 247 234 247 279 309 311 310 312 315 319 320 320 318 323 332 329 327 322 316 317 317 318 317 308 295 292 279 263 262 264 264 269 272
175 214 257 215 143 190 225 259 251 248 250 250 262 281 293 304 311 318 320 322 325 323 318 320 327 330 325 319 315 318 321 321 321 321 317 314 307 292 269 251 253 260 269 284
196 218 246 190 212 237 247 257 260 253 262 260 275 284 294 301 307 311 313 317 320 319 317 322 329 328 317 313 319 323 324 322 320 323 324 325 317 303 286 256 242 253 253 265
251 263 258 250 257 267 254 255 268 266 271 268 270 280 292 300 306 310 313 315 318 320 320 320 324 323 312 312 320 322 322 320 320 325 329 335 329 319 307 272 250 249 250 251
254 274 297 274 243 251 260 267 279 283 275 268 271 283 287 294 300 303 309 312 314 314 312 311 316 317 317 318 320 321 319 319 322 323 325 328 331 328 320 307 267 258 252 247
232 232 220 262 278 264 254 265 271 282 295 290 270 277 288 290 294 300 306 311 314 315 315 314 315 315 317 318 319 318 321 324 321 322 324 328 330 332 340 330 328 314 301 280
236 237 231 269 292 278 255 264 270 267 269 285 286 277 284 290 295 301 306 310 310 311 312 314 317 318 320 321 322 321 314 314 314 320 324 327 328 328 330 335 341 341 341 333
235 235 271 264 275 291 281 283 286 286 280 274 282 290 289 293 298 299 300 302 305 308 312 314 318 320 321 321 323 321 314 312 316 315 315 316 320 322 323 326 331 337 352 358
234 217 238 270 292 302 301 303 303 296 294 295 294 293 293 293 294 297 301 305 310 314 317 320 320 318 322 323 325 322 321 321 319 318 317 317 319 323 325 328 329 331 340 358
263 258 257 270 282 292 301 292 284 284 288 292 295 294 292 291 294 299 304 307 311 313 315 316 312 314 319 324 326 326 328 332 332 327 327 328 328 328 330 332 334 336 339 339
225 261 270 279 281 284 277 270 269 275 282 283 284 290 299 303 306 307 309 311 302 299 302 304 307 313 319 324 327 326 325 327 334 335 334 330 327 328 326 326 327 326 323 333
230 238 240 247 259 272 281 281 278 277 276 279 288 293 294 294 296 302 309 317 318 314 308 307 311 316 320 324 326 324 324 324 327 330 329 329 327 326 327 329 326 320 324 342
250 252 254 256 257 259 267 276 281 280 283 289 290 287 286 289 294 302 310 317 318 315 315 320 324 329 323 324 330 325 325 326 329 331 330 330 335 335 331 327 321 323 331 340
275 277 275 278 281 275 280 287 290 292 292 292 294 296 299 301 305 308 308 301 293 292 303 315 320 318 318 320 328 325 321 320 321 324 328 330 330 329 328 327 326 328 335 339
287 288 285 286 290 289 280 280 284 288 293 292 285 286 292 299 303 306 307 304 306 308 309 317 322 316 318 322 325 320 315 313 315 317 320 323 323 322 321 319 320 326 330 333
275 277 280 284 289 295 296 293 285 286 294 297 293 294 299 304 307 303 290 282 300 314 320 316 314 317 326 330 329 326 320 317 315 315 317 318 317 317 316 315 318 324 326 326
273 273 276 277 278 287 301 300 289 285 288 291 293 293 291 291 294 296 301 306 309 313 322 317 316 324 332 342 339 329 325 323 319 315 315 316 316 315 315 316 314 315 315 317
276 284 289 293 295 300 301 302 300 294 288 289 288 286 288 295 297 286 285 304 314 316 320 320 324 329 338 348 336 328 323 319 317 316 317 318 317 316 313 311 308 309 309 311
270 277 288 296 293 287 289 302 310 307 304 304 304 301 291 278 281 296 302 305 312 321 322 321 327 334 345 337 329 324 320 312 309 312 312 313 313 312 310 307 305 306 305 303
262 266 268 265 264 274 285 294 299 302 306 309 310 307 304 302 298 301 305 307 309 316 321 319 323 329 330 324 320 316 314 315 321 323 316 309 307 305 304 304 303 299 298 295
284 282 286 293 291 281 280 282 285 292 295 294 298 303 308 311 311 310 310 311 312 314 314 315 319 320 317 316 314 313 310 309 308 308 307 304 301 300 303 301 296 294 293 291